| time (UTC) | temp C | wind direction | speed KPH | gust KPH | rain 1hr cm | rain 24hr cm | rain mn cm | humidity % | barometer mb |
| 20260906083322 | 31 | 203 | 1.6 | 4.8 | 0.00 | 0.00 | 0.00 | 57 | 1018.9 |
| 20260906082819 | 31 | 192 | 0.0 | 4.8 | 0.00 | 0.00 | 0.00 | 59 | 1018.9 |
| 20260906082320 | 30 | 256 | 0.0 | 3.2 | 0.00 | 0.00 | 0.00 | 58 | 1018.9 |
| 20260906081820 | 30 | 172 | 0.0 | 3.2 | 0.00 | 0.00 | 0.00 | 59 | 1018.9 |
| 20260906081320 | 30 | 128 | 1.6 | 4.8 | 0.00 | 0.00 | 0.00 | 60 | 1018.8 |
| 20260906080820 | 30 | 229 | 1.6 | 6.4 | 0.00 | 0.00 | 0.00 | 60 | 1018.8 |
| 20260906080316 | 30 | 224 | 0.0 | 6.4 | 0.00 | 0.00 | 0.00 | 59 | 1018.7 |
| 20260906075835 | 30 | 124 | 1.6 | 3.2 | 0.00 | 0.00 | 0.00 | 60 | 1018.7 |
| 20260906075817 | 30 | 143 | 0.0 | 3.2 | 0.00 | 0.00 | 0.00 | 60 | 1018.6 |
| 20260906074816 | 29 | 184 | 0.0 | 3.2 | 0.00 | 0.00 | 0.00 | 62 | 1018.6 |
| 20260906074315 | 29 | 105 | 0.0 | 3.2 | 0.00 | 0.00 | 0.00 | 61 | 1018.5 |
| 20260906073815 | 29 | 41 | 0.0 | 3.2 | 0.00 | 0.00 | 0.00 | 60 | 1018.5 |
| 20260906073315 | 29 | 115 | 0.0 | 1.6 | 0.00 | 0.00 | 0.00 | 62 | 1018.5 |
| 20260906072820 | 28 | 73 | 0.0 | 1.6 | 0.00 | 0.00 | 0.00 | 62 | 1018.5 |
| 20260906072315 | 28 | 120 | 0.0 | 1.6 | 0.00 | 0.00 | 0.00 | 63 | 1018.5 |
| 20260906071816 | 28 | 127 | 0.0 | 1.6 | 0.00 | 0.00 | 0.00 | 64 | 1018.5 |
| 20260906071315 | 27 | 326 | 0.0 | 1.6 | 0.00 | 0.00 | 0.00 | 64 | 1018.6 |
| 20260906070816 | 27 | 80 | 0.0 | 3.2 | 0.00 | 0.00 | 0.00 | 66 | 1018.6 |
| 20260906070318 | 27 | 78 | 1.6 | 4.8 | 0.00 | 0.00 | 0.00 | 66 | 1018.5 |
| 20260906070114 | 26 | 127 | 1.6 | 8.0 | 0.00 | 0.00 | 0.00 | 69 | 1018.5 |
| 20260906065315 | 26 | 43 | 1.6 | 8.0 | 0.00 | 0.00 | 0.00 | 67 | 1018.5 |
| 20260906064815 | 26 | 49 | 0.0 | 3.2 | 0.00 | 0.00 | 0.00 | 70 | 1018.4 |
| 20260906064546 | 26 | 122 | 0.0 | 4.8 | 0.00 | 0.00 | 0.00 | 73 | 1018.4 |
| 20260906064048 | 25 | 213 | 0.0 | 4.8 | 0.00 | 0.00 | 0.00 | 74 | 1018.4 |
| 20260906063556 | 25 | 53 | 0.0 | 3.2 | 0.00 | 0.00 | 0.00 | 75 | 1018.5 |
| 20260906063043 | 24 | 96 | 1.6 | 6.4 | 0.00 | 0.00 | 0.00 | 77 | 1018.4 |
| 20260906062539 | 23 | 45 | 4.8 | 8.0 | 0.00 | 0.00 | 0.00 | 79 | 1018.5 |
| 20260906061809 | 23 | 52 | 4.8 | 8.0 | 0.00 | 0.00 | 0.00 | 80 | 1018.4 |
| 20260906061305 | 22 | 55 | 4.8 | 9.7 | 0.00 | 0.00 | 0.00 | 83 | 1018.4 |
| 20260906061036 | 22 | 62 | 1.6 | 9.7 | 0.00 | 0.00 | 0.00 | 85 | 1018.3 |
| 20260906060301 | 21 | 61 | 0.0 | 4.8 | 0.00 | 0.00 | 0.00 | 90 | 1018.2 |
| 20260906055801 | 21 | 63 | 0.0 | 1.6 | 0.00 | 0.00 | 0.00 | 92 | 1018.2 |
| 20260906055301 | 20 | 64 | 0.0 | 1.6 | 0.00 | 0.00 | 0.00 | 92 | 1018.2 |
| 20260906054759 | 20 | 125 | 0.0 | 0.0 | 0.00 | 0.00 | 0.00 | 93 | 1018.0 |
| 20260906054253 | 20 | 125 | 0.0 | 0.0 | 0.00 | 0.00 | 0.00 | 93 | 1018.1 |
| 20260906053749 | 20 | 125 | 0.0 | 0.0 | 0.00 | 0.00 | 0.00 | 93 | 1018.0 |
| 20260906053250 | 19 | 125 | 0.0 | 0.0 | 0.00 | 0.00 | 0.00 | 93 | 1017.9 |
| 20260906052749 | 19 | 125 | 0.0 | 0.0 | 0.00 | 0.00 | 0.00 | 93 | 1017.9 |
| 20260906052245 | 18 | 125 | 0.0 | 0.0 | 0.00 | 0.00 | 0.00 | 93 | 1017.8 |
| 20260906051745 | 18 | 125 | 0.0 | 0.0 | 0.00 | 0.00 | 0.00 | 92 | 1017.9 |
| 20260906051243 | 18 | 125 | 0.0 | 0.0 | 0.00 | 0.00 | 0.00 | 93 | 1017.9 |
| 20260906051011 | 18 | 125 | 0.0 | 0.0 | 0.00 | 0.00 | 0.00 | 93 | 1017.8 |
| 20260906050238 | 18 | 125 | 0.0 | 0.0 | 0.00 | 0.00 | 0.00 | 93 | 1017.9 |
| 20260906045737 | 18 | 125 | 0.0 | 0.0 | 0.00 | 0.00 | 0.00 | 92 | 1017.8 |
| 20260906045235 | 18 | 125 | 0.0 | 0.0 | 0.00 | 0.00 | 0.00 | 92 | 1017.8 |
| 20260906044731 | 18 | 125 | 0.0 | 0.0 | 0.00 | 0.00 | 0.00 | 92 | 1017.7 |
| 20260906044230 | 18 | 125 | 0.0 | 0.0 | 0.00 | 0.00 | 0.00 | 92 | 1017.6 |
| 20260906043731 | 18 | 125 | 0.0 | 0.0 | 0.00 | 0.00 | 0.00 | 92 | 1017.6 |
| 20260906043231 | 18 | 125 | 0.0 | 0.0 | 0.00 | 0.00 | 0.00 | 92 | 1017.7 |
| 20260906043005 | 18 | 125 | 0.0 | 0.0 | 0.00 | 0.00 | 0.00 | 92 | 1017.6 |
| 20260906042232 | 18 | 125 | 0.0 | 0.0 | 0.00 | 0.00 | 0.00 | 92 | 1017.6 |
| 20260906041733 | 18 | 125 | 0.0 | 0.0 | 0.00 | 0.00 | 0.00 | 92 | 1017.6 |
| 20260906041503 | 18 | 125 | 0.0 | 1.6 | 0.00 | 0.00 | 0.00 | 91 | 1017.6 |
| 20260906040732 | 18 | 125 | 0.0 | 1.6 | 0.00 | 0.00 | 0.00 | 91 | 1017.6 |
| 20260906040229 | 18 | 127 | 0.0 | 4.8 | 0.00 | 0.00 | 0.00 | 91 | 1017.6 |
| 20260906035726 | 18 | 129 | 0.0 | 4.8 | 0.00 | 0.00 | 0.00 | 91 | 1017.5 |
| 20260906035227 | 18 | 30 | 0.0 | 3.2 | 0.00 | 0.00 | 0.00 | 91 | 1017.4 |
| 20260906034725 | 18 | 39 | 0.0 | 4.8 | 0.00 | 0.00 | 0.00 | 91 | 1017.5 |
| 20260906034223 | 18 | 49 | 0.0 | 4.8 | 0.00 | 0.00 | 0.00 | 91 | 1017.4 |
| 20260906033721 | 18 | 42 | 0.0 | 0.0 | 0.00 | 0.00 | 0.00 | 91 | 1017.5 |
| 20260906033221 | 18 | 41 | 0.0 | 0.0 | 0.00 | 0.00 | 0.00 | 91 | 1017.4 |
| 20260906032721 | 18 | 42 | 0.0 | 0.0 | 0.00 | 0.00 | 0.00 | 91 | 1017.4 |
| 20260906032219 | 18 | 42 | 0.0 | 0.0 | 0.00 | 0.00 | 0.00 | 91 | 1017.4 |
| 20260906031719 | 19 | 41 | 0.0 | 0.0 | 0.00 | 0.00 | 0.00 | 91 | 1017.3 |
| 20260906031219 | 18 | 41 | 0.0 | 0.0 | 0.00 | 0.00 | 0.00 | 91 | 1017.4 |
| 20260906030731 | 19 | 42 | 0.0 | 0.0 | 0.00 | 0.00 | 0.00 | 90 | 1017.4 |
| 20260906030720 | 18 | 42 | 0.0 | 0.0 | 0.00 | 0.00 | 0.00 | 90 | 1017.4 |
| 20260906025715 | 19 | 41 | 0.0 | 0.0 | 0.00 | 0.00 | 0.00 | 90 | 1017.6 |
| 20260906025215 | 19 | 41 | 0.0 | 0.0 | 0.00 | 0.00 | 0.00 | 90 | 1017.5 |
| 20260906024715 | 19 | 41 | 0.0 | 1.6 | 0.00 | 0.00 | 0.00 | 90 | 1017.6 |
| 20260906024213 | 20 | 42 | 0.0 | 1.6 | 0.00 | 0.00 | 0.00 | 90 | 1017.6 |
| 20260906023714 | 20 | 42 | 0.0 | 0.0 | 0.00 | 0.00 | 0.00 | 90 | 1017.5 |
| 20260906023212 | 20 | 42 | 0.0 | 0.0 | 0.00 | 0.00 | 0.00 | 91 | 1017.5 |
| 20260906022713 | 20 | 42 | 0.0 | 0.0 | 0.00 | 0.00 | 0.00 | 91 | 1017.5 |
| 20260906022213 | 20 | 42 | 0.0 | 0.0 | 0.00 | 0.00 | 0.00 | 92 | 1017.5 |
| 20260906021939 | 20 | 42 | 0.0 | 0.0 | 0.00 | 0.00 | 0.00 | 92 | 1017.5 |
| 20260906021209 | 20 | 42 | 0.0 | 0.0 | 0.00 | 0.00 | 0.00 | 93 | 1017.6 |
| 20260906020706 | 20 | 42 | 0.0 | 0.0 | 0.00 | 0.00 | 0.00 | 92 | 1017.6 |
| 20260906020205 | 20 | 42 | 0.0 | 0.0 | 0.00 | 0.00 | 0.00 | 93 | 1017.5 |
| 20260906015706 | 20 | 42 | 0.0 | 0.0 | 0.00 | 0.00 | 0.00 | 92 | 1017.6 |
| 20260906015205 | 20 | 42 | 0.0 | 0.0 | 0.00 | 0.00 | 0.00 | 93 | 1017.6 |
| 20260906014705 | 20 | 42 | 0.0 | 0.0 | 0.00 | 0.00 | 0.00 | 93 | 1017.5 |
| 20260906014206 | 20 | 42 | 0.0 | 0.0 | 0.00 | 0.00 | 0.00 | 93 | 1017.5 |
| 20260906013703 | 20 | 42 | 0.0 | 0.0 | 0.00 | 0.00 | 0.00 | 93 | 1017.5 |
| 20260906013203 | 20 | 42 | 0.0 | 0.0 | 0.00 | 0.00 | 0.00 | 93 | 1017.5 |
| 20260906012930 | 20 | 42 | 0.0 | 0.0 | 0.00 | 0.00 | 0.00 | 93 | 1017.5 |
| 20260906012200 | 20 | 42 | 0.0 | 0.0 | 0.00 | 0.00 | 0.00 | 93 | 1017.6 |
| 20260906011659 | 20 | 42 | 0.0 | 0.0 | 0.00 | 0.00 | 0.00 | 93 | 1017.5 |
| 20260906011158 | 20 | 42 | 0.0 | 0.0 | 0.00 | 0.00 | 0.00 | 93 | 1017.5 |
| 20260906010658 | 20 | 42 | 0.0 | 0.0 | 0.00 | 0.00 | 0.00 | 92 | 1017.5 |
| 20260906010159 | 20 | 42 | 0.0 | 0.0 | 0.00 | 0.00 | 0.00 | 92 | 1017.5 |
| 20260906005657 | 20 | 42 | 0.0 | 0.0 | 0.00 | 0.00 | 0.00 | 92 | 1017.5 |
| 20260906005157 | 20 | 42 | 0.0 | 0.0 | 0.00 | 0.00 | 0.00 | 92 | 1017.5 |
| 20260906004658 | 20 | 42 | 0.0 | 0.0 | 0.00 | 0.00 | 0.00 | 92 | 1017.4 |
| 20260906004213 | 20 | 42 | 0.0 | 0.0 | 0.00 | 0.00 | 0.00 | 92 | 1017.5 |
| 20260906004201 | 20 | 42 | 0.0 | 0.0 | 0.00 | 0.00 | 0.00 | 92 | 1017.5 |
| 20260906003157 | 20 | 42 | 0.0 | 0.0 | 0.00 | 0.00 | 0.00 | 92 | 1017.5 |
| 20260906002657 | 20 | 42 | 0.0 | 0.0 | 0.00 | 0.00 | 0.00 | 92 | 1017.5 |
| 20260906002157 | 20 | 42 | 0.0 | 0.0 | 0.00 | 0.00 | 0.00 | 92 | 1017.7 |
| 20260906001925 | 20 | 42 | 0.0 | 0.0 | 0.00 | 0.00 | 0.00 | 92 | 1017.7 |
| 20260906001157 | 20 | 42 | 0.0 | 0.0 | 0.00 | 0.00 | 0.00 | 92 | 1017.8 |
| 20260906000926 | 20 | 42 | 0.0 | 0.0 | 0.00 | 0.00 | 0.00 | 91 | 1017.8 |
| 20260906000157 | 21 | 42 | 0.0 | 0.0 | 0.00 | 0.00 | 0.00 | 91 | 1017.8 |
| 20260905235931 | 21 | 42 | 0.0 | 0.0 | 0.00 | 0.00 | 0.00 | 91 | 1017.8 |
| 20260905235156 | 21 | 42 | 0.0 | 0.0 | 0.00 | 0.00 | 0.00 | 91 | 1017.9 |
| 20260905234656 | 20 | 42 | 0.0 | 0.0 | 0.00 | 0.00 | 0.00 | 90 | 1017.9 |
| 20260905234157 | 21 | 42 | 0.0 | 0.0 | 0.00 | 0.00 | 0.00 | 90 | 1017.9 |
| 20260905233657 | 21 | 42 | 0.0 | 0.0 | 0.00 | 0.00 | 0.00 | 90 | 1017.9 |
| 20260905233152 | 21 | 42 | 0.0 | 0.0 | 0.00 | 0.00 | 0.00 | 89 | 1017.8 |
| 20260905232638 | 21 | 42 | 0.0 | 0.0 | 0.00 | 0.00 | 0.00 | 90 | 1017.9 |
| 20260905232137 | 21 | 42 | 0.0 | 0.0 | 0.00 | 0.00 | 0.00 | 90 | 1017.8 |
| 20260905231634 | 21 | 42 | 0.0 | 0.0 | 0.00 | 0.00 | 0.00 | 90 | 1017.8 |
| 20260905231408 | 21 | 41 | 0.0 | 0.0 | 0.00 | 0.00 | 0.00 | 89 | 1017.8 |
| 20260905230633 | 21 | 41 | 0.0 | 3.2 | 0.00 | 0.00 | 0.00 | 88 | 1017.8 |
| 20260905230135 | 22 | 41 | 1.6 | 3.2 | 0.00 | 0.00 | 0.00 | 88 | 1017.8 |
| 20260905225652 | 22 | 42 | 1.6 | 6.4 | 0.00 | 0.00 | 0.00 | 88 | 1017.8 |
| 20260905225647 | 22 | 41 | 1.6 | 6.4 | 0.00 | 0.00 | 0.00 | 87 | 1017.8 |
| 20260905225634 | 22 | 42 | 1.6 | 3.2 | 0.00 | 0.00 | 0.00 | 88 | 1017.8 |
| 20260905224135 | 22 | 44 | 0.0 | 1.6 | 0.00 | 0.00 | 0.00 | 86 | 1017.8 |
| 20260905223634 | 23 | 237 | 0.0 | 0.0 | 0.00 | 0.00 | 0.00 | 85 | 1017.7 |
| 20260905223134 | 23 | 237 | 0.0 | 0.0 | 0.00 | 0.00 | 0.00 | 85 | 1017.8 |
| 20260905222632 | 23 | 184 | 0.0 | 0.0 | 0.00 | 0.00 | 0.00 | 85 | 1017.8 |
| 20260905222133 | 23 | 255 | 0.0 | 1.6 | 0.00 | 0.00 | 0.00 | 85 | 1017.9 |
| 20260905221909 | 23 | 258 | 1.6 | 4.8 | 0.00 | 0.00 | 0.00 | 85 | 1017.8 |
| 20260905221128 | 23 | 245 | 1.6 | 4.8 | 0.00 | 0.00 | 0.00 | 86 | 1017.7 |
| 20260905220630 | 23 | 259 | 1.6 | 4.8 | 0.00 | 0.00 | 0.00 | 88 | 1017.8 |
| 20260905220126 | 23 | 240 | 1.6 | 3.2 | 0.00 | 0.00 | 0.00 | 89 | 1017.7 |
| 20260905215626 | 23 | 261 | 0.0 | 3.2 | 0.00 | 0.00 | 0.00 | 90 | 1017.8 |
| 20260905215126 | 23 | 264 | 0.0 | 1.6 | 0.00 | 0.00 | 0.00 | 89 | 1017.7 |
| 20260905214624 | 23 | 257 | 0.0 | 1.6 | 0.00 | 0.00 | 0.00 | 89 | 1017.7 |
| 20260905214125 | 23 | 252 | 0.0 | 1.6 | 0.00 | 0.00 | 0.00 | 89 | 1017.7 |
| 20260905213624 | 23 | 248 | 0.0 | 1.6 | 0.00 | 0.00 | 0.00 | 89 | 1017.8 |
| 20260905213118 | 23 | 258 | 0.0 | 1.6 | 0.00 | 0.00 | 0.00 | 89 | 1017.8 |
| 20260905212615 | 23 | 256 | 0.0 | 3.2 | 0.00 | 0.00 | 0.00 | 89 | 1017.8 |
| 20260905212132 | 23 | 260 | 1.6 | 4.8 | 0.00 | 0.00 | 0.00 | 89 | 1017.7 |
| 20260905212118 | 23 | 260 | 1.6 | 4.8 | 0.00 | 0.00 | 0.00 | 89 | 1017.8 |
| 20260905211109 | 23 | 266 | 1.6 | 4.8 | 0.00 | 0.00 | 0.00 | 89 | 1017.7 |
| 20260905210842 | 23 | 251 | 0.0 | 3.2 | 0.00 | 0.00 | 0.00 | 90 | 1017.7 |
| 20260905210116 | 23 | 239 | 0.0 | 1.6 | 0.00 | 0.00 | 0.00 | 90 | 1017.6 |
| 20260905205605 | 23 | 229 | 0.0 | 0.0 | 0.00 | 0.00 | 0.00 | 90 | 1017.6 |
| 20260905205105 | 23 | 250 | 0.0 | 0.0 | 0.00 | 0.00 | 0.00 | 89 | 1017.6 |
| 20260905204605 | 23 | 260 | 0.0 | 0.0 | 0.00 | 0.00 | 0.00 | 89 | 1017.7 |
| 20260905204105 | 23 | 260 | 0.0 | 0.0 | 0.00 | 0.00 | 0.00 | 89 | 1017.6 |
| 20260905203841 | 23 | 260 | 0.0 | 0.0 | 0.00 | 0.00 | 0.00 | 89 | 1017.6 |
| 20260905203103 | 23 | 261 | 0.0 | 1.6 | 0.00 | 0.00 | 0.00 | 90 | 1017.6 |
| 20260905202602 | 23 | 259 | 0.0 | 1.6 | 0.00 | 0.00 | 0.00 | 90 | 1017.6 |
| 20260905202100 | 23 | 259 | 0.0 | 1.6 | 0.00 | 0.00 | 0.00 | 90 | 1017.6 |
| 20260905201828 | 23 | 261 | 0.0 | 1.6 | 0.00 | 0.00 | 0.00 | 90 | 1017.6 |
| 20260905201050 | 23 | 248 | 0.0 | 1.6 | 0.00 | 0.00 | 0.00 | 90 | 1017.6 |
| 20260905200826 | 23 | 313 | 0.0 | 0.0 | 0.00 | 0.00 | 0.00 | 90 | 1017.6 |
| 20260905200100 | 23 | 313 | 0.0 | 0.0 | 0.00 | 0.00 | 0.00 | 90 | 1017.5 |
| 20260905195548 | 23 | 313 | 0.0 | 0.0 | 0.00 | 0.00 | 0.00 | 88 | 1017.6 |
| 20260905195048 | 23 | 313 | 0.0 | 0.0 | 0.00 | 0.00 | 0.00 | 88 | 1017.6 |
| 20260905194548 | 23 | 312 | 0.0 | 0.0 | 0.00 | 0.00 | 0.00 | 88 | 1017.6 |
| 20260905194047 | 23 | 313 | 0.0 | 0.0 | 0.00 | 0.00 | 0.00 | 88 | 1017.5 |
| 20260905193547 | 24 | 313 | 0.0 | 0.0 | 0.00 | 0.00 | 0.00 | 88 | 1017.5 |
| 20260905193043 | 24 | 313 | 0.0 | 0.0 | 0.00 | 0.00 | 0.00 | 88 | 1017.5 |
| 20260905192540 | 24 | 313 | 0.0 | 0.0 | 0.00 | 0.00 | 0.00 | 88 | 1017.5 |
| 20260905192053 | 25 | 319 | 0.0 | 0.0 | 0.00 | 0.00 | 0.00 | 88 | 1017.4 |
| 20260905191538 | 25 | 319 | 0.0 | 0.0 | 0.00 | 0.00 | 0.00 | 88 | 1017.4 |
| 20260905191034 | 25 | 319 | 0.0 | 0.0 | 0.00 | 0.00 | 0.00 | 88 | 1017.3 |
| 20260905190534 | 25 | 320 | 0.0 | 3.2 | 0.00 | 0.00 | 0.00 | 87 | 1017.3 |
| 20260905190032 | 25 | 319 | 0.0 | 3.2 | 0.00 | 0.00 | 0.00 | 87 | 1017.3 |
| 20260905185531 | 25 | 281 | 0.0 | 1.6 | 0.00 | 0.00 | 0.00 | 86 | 1017.2 |
| 20260905185031 | 25 | 274 | 0.0 | 1.6 | 0.00 | 0.00 | 0.00 | 86 | 1017.2 |
| 20260905184529 | 25 | 279 | 0.0 | 1.6 | 0.00 | 0.00 | 0.00 | 86 | 1017.0 |
| 20260905184307 | 25 | 274 | 0.0 | 1.6 | 0.00 | 0.00 | 0.00 | 86 | 1017.1 |
| 20260905183529 | 26 | 276 | 0.0 | 4.8 | 0.00 | 0.00 | 0.00 | 85 | 1017.0 |
| 20260905183031 | 26 | 274 | 1.6 | 4.8 | 0.00 | 0.00 | 0.00 | 85 | 1017.0 |
| 20260905182528 | 26 | 264 | 1.6 | 4.8 | 0.00 | 0.00 | 0.00 | 85 | 1016.9 |
| 20260905182028 | 26 | 252 | 1.6 | 4.8 | 0.00 | 0.00 | 0.00 | 84 | 1017.0 |
| 20260905181529 | 26 | 263 | 1.6 | 4.8 | 0.00 | 0.00 | 0.00 | 84 | 1017.0 |
| 20260905181030 | 26 | 259 | 1.6 | 6.4 | 0.00 | 0.00 | 0.00 | 84 | 1016.9 |
| 20260905180807 | 26 | 240 | 1.6 | 6.4 | 0.00 | 0.00 | 0.00 | 83 | 1016.9 |
| 20260905180029 | 26 | 267 | 3.2 | 6.4 | 0.00 | 0.00 | 0.00 | 83 | 1016.8 |
| 20260905175529 | 26 | 261 | 1.6 | 6.4 | 0.00 | 0.00 | 0.00 | 83 | 1016.8 |
| 20260905175031 | 26 | 253 | 1.6 | 6.4 | 0.00 | 0.00 | 0.00 | 83 | 1016.8 |
| 20260905174801 | 27 | 253 | 1.6 | 4.8 | 0.00 | 0.00 | 0.00 | 83 | 1016.8 |
| 20260905174024 | 27 | 250 | 3.2 | 6.4 | 0.00 | 0.00 | 0.00 | 82 | 1016.7 |
| 20260905173523 | 27 | 236 | 3.2 | 6.4 | 0.00 | 0.00 | 0.00 | 81 | 1016.8 |
| 20260905173053 | 27 | 247 | 3.2 | 9.7 | 0.00 | 0.00 | 0.00 | 79 | 1016.7 |
| 20260905173040 | 27 | 266 | 3.2 | 9.7 | 0.00 | 0.00 | 0.00 | 80 | 1016.7 |
| 20260905172023 | 28 | 265 | 3.2 | 11.3 | 0.00 | 0.00 | 0.00 | 78 | 1016.7 |
| 20260905171526 | 28 | 226 | 3.2 | 11.3 | 0.00 | 0.00 | 0.00 | 76 | 1016.5 |
| 20260905171023 | 28 | 254 | 3.2 | 9.7 | 0.00 | 0.00 | 0.00 | 74 | 1016.5 |
| 20260905170523 | 28 | 215 | 3.2 | 9.7 | 0.00 | 0.00 | 0.00 | 73 | 1016.6 |
| 20260905170023 | 28 | 244 | 3.2 | 9.7 | 0.00 | 0.00 | 0.00 | 72 | 1016.5 |
| 20260905165522 | 29 | 224 | 4.8 | 11.3 | 0.00 | 0.00 | 0.00 | 70 | 1016.5 |
| 20260905165023 | 29 | 226 | 4.8 | 11.3 | 0.00 | 0.00 | 0.00 | 69 | 1016.4 |
| 20260905164524 | 29 | 240 | 6.4 | 11.3 | 0.00 | 0.00 | 0.00 | 68 | 1016.4 |
| 20260905164018 | 29 | 251 | 4.8 | 11.3 | 0.00 | 0.00 | 0.00 | 67 | 1016.4 |
| 20260905163514 | 29 | 249 | 4.8 | 11.3 | 0.00 | 0.00 | 0.00 | 67 | 1016.3 |
| 20260905163014 | 29 | 252 | 6.4 | 16.1 | 0.00 | 0.00 | 0.00 | 68 | 1016.4 |
| 20260905162757 | 30 | 238 | 8.0 | 19.3 | 0.00 | 0.00 | 0.00 | 67 | 1016.4 |
| 20260905162013 | 30 | 217 | 6.4 | 19.3 | 0.00 | 0.00 | 0.00 | 66 | 1016.5 |
| 20260905161513 | 30 | 240 | 6.4 | 12.9 | 0.00 | 0.00 | 0.00 | 65 | 1016.6 |
| 20260905161013 | 30 | 229 | 6.4 | 12.9 | 0.00 | 0.00 | 0.00 | 66 | 1016.5 |
| 20260905160521 | 30 | 263 | 6.4 | 16.1 | 0.00 | 0.00 | 0.00 | 68 | 1016.5 |
| 20260905160013 | 30 | 269 | 4.8 | 16.1 | 0.00 | 0.00 | 0.00 | 67 | 1016.6 |
| 20260905155513 | 30 | 233 | 4.8 | 11.3 | 0.00 | 0.00 | 0.00 | 67 | 1016.7 |
| 20260905155014 | 30 | 218 | 6.4 | 12.9 | 0.00 | 0.00 | 0.00 | 68 | 1016.6 |
| 20260905154513 | 30 | 244 | 8.0 | 14.5 | 0.00 | 0.00 | 0.00 | 69 | 1016.6 |
| 20260905154013 | 30 | 231 | 8.0 | 14.5 | 0.00 | 0.00 | 0.00 | 69 | 1016.6 |
| 20260905153755 | 30 | 208 | 8.0 | 16.1 | 0.00 | 0.00 | 0.00 | 69 | 1016.6 |
| 20260905153013 | 30 | 245 | 8.0 | 16.1 | 0.00 | 0.00 | 0.00 | 69 | 1016.6 |
| 20260905152749 | 30 | 198 | 8.0 | 17.7 | 0.00 | 0.00 | 0.00 | 69 | 1016.7 |
| 20260905152013 | 30 | 255 | 8.0 | 20.9 | 0.00 | 0.00 | 0.00 | 66 | 1016.7 |
| 20260905151512 | 30 | 220 | 9.7 | 22.5 | 0.00 | 0.00 | 0.00 | 70 | 1016.7 |
| 20260905151019 | 30 | 233 | 11.3 | 22.5 | 0.00 | 0.00 | 0.00 | 69 | 1016.6 |
| 20260905150514 | 30 | 205 | 11.3 | 19.3 | 0.00 | 0.00 | 0.00 | 69 | 1016.8 |
| 20260905150013 | 30 | 256 | 11.3 | 20.9 | 0.00 | 0.00 | 0.00 | 68 | 1016.8 |
| 20260905145747 | 30 | 248 | 11.3 | 20.9 | 0.00 | 0.00 | 0.00 | 67 | 1016.8 |
| 20260905145011 | 30 | 215 | 11.3 | 20.9 | 0.00 | 0.00 | 0.00 | 69 | 1016.7 |
| 20260905144511 | 30 | 267 | 11.3 | 20.9 | 0.00 | 0.00 | 0.00 | 68 | 1016.7 |
| 20260905144010 | 30 | 253 | 11.3 | 20.9 | 0.00 | 0.00 | 0.00 | 69 | 1016.8 |
| 20260905143508 | 30 | 242 | 11.3 | 22.5 | 0.00 | 0.00 | 0.00 | 68 | 1016.7 |
| 20260905143253 | 30 | 282 | 11.3 | 24.1 | 0.00 | 0.00 | 0.00 | 69 | 1016.7 |
| 20260905142504 | 30 | 251 | 11.3 | 24.1 | 0.00 | 0.00 | 0.00 | 69 | 1016.8 |
| 20260905142007 | 30 | 221 | 11.3 | 25.7 | 0.00 | 0.00 | 0.00 | 67 | 1016.9 |
| 20260905141505 | 30 | 259 | 12.9 | 25.7 | 0.00 | 0.00 | 0.00 | 68 | 1017.0 |
| 20260905141008 | 30 | 207 | 11.3 | 20.9 | 0.00 | 0.00 | 0.00 | 68 | 1017.0 |
| 20260905140503 | 30 | 252 | 9.7 | 17.7 | 0.00 | 0.00 | 0.00 | 66 | 1017.0 |
| 20260905140005 | 30 | 266 | 9.7 | 24.1 | 0.00 | 0.00 | 0.00 | 68 | 1017.0 |
| 20260905135502 | 30 | 252 | 11.3 | 24.1 | 0.00 | 0.00 | 0.00 | 67 | 1017.1 |
| 20260905135002 | 30 | 260 | 11.3 | 20.9 | 0.00 | 0.00 | 0.00 | 65 | 1017.1 |
| 20260905134502 | 30 | 255 | 9.7 | 20.9 | 0.00 | 0.00 | 0.00 | 64 | 1017.1 |
| 20260905134002 | 30 | 221 | 11.3 | 20.9 | 0.00 | 0.00 | 0.00 | 67 | 1017.0 |
| 20260905133459 | 30 | 233 | 9.7 | 20.9 | 0.00 | 0.00 | 0.00 | 67 | 1017.0 |
| 20260905133000 | 30 | 221 | 9.7 | 19.3 | 0.00 | 0.00 | 0.00 | 67 | 1016.9 |
| 20260905132458 | 30 | 219 | 9.7 | 19.3 | 0.00 | 0.00 | 0.00 | 68 | 1017.0 |
| 20260905131959 | 30 | 231 | 9.7 | 19.3 | 0.00 | 0.00 | 0.00 | 65 | 1017.0 |
| 20260905131456 | 30 | 245 | 9.7 | 19.3 | 0.00 | 0.00 | 0.00 | 65 | 1017.0 |
| 20260905131026 | 31 | 222 | 9.7 | 17.7 | 0.00 | 0.00 | 0.00 | 65 | 1017.2 |
| 20260905131012 | 30 | 252 | 9.7 | 19.3 | 0.00 | 0.00 | 0.00 | 66 | 1017.1 |
| 20260905130458 | 30 | 226 | 9.7 | 17.7 | 0.00 | 0.00 | 0.00 | 67 | 1017.1 |
| 20260905125454 | 31 | 226 | 8.0 | 17.7 | 0.00 | 0.00 | 0.00 | 64 | 1017.2 |
| 20260905124954 | 31 | 245 | 8.0 | 19.3 | 0.00 | 0.00 | 0.00 | 64 | 1017.2 |
| 20260905124452 | 31 | 181 | 8.0 | 19.3 | 0.00 | 0.00 | 0.00 | 66 | 1017.2 |
| 20260905123951 | 31 | 228 | 8.0 | 16.1 | 0.00 | 0.00 | 0.00 | 65 | 1017.3 |
| 20260905123451 | 31 | 249 | 8.0 | 17.7 | 0.00 | 0.00 | 0.00 | 64 | 1017.3 |
| 20260905123224 | 30 | 233 | 8.0 | 20.9 | 0.00 | 0.00 | 0.00 | 64 | 1017.4 |
| 20260905122453 | 30 | 236 | 9.7 | 20.9 | 0.00 | 0.00 | 0.00 | 66 | 1017.4 |
| 20260905121953 | 30 | 238 | 8.0 | 19.3 | 0.00 | 0.00 | 0.00 | 67 | 1017.4 |
| 20260905121451 | 30 | 229 | 9.7 | 19.3 | 0.00 | 0.00 | 0.00 | 68 | 1017.2 |
| 20260905120945 | 30 | 243 | 9.7 | 19.3 | 0.00 | 0.00 | 0.00 | 66 | 1017.3 |
| 20260905120717 | 30 | 234 | 9.7 | 19.3 | 0.00 | 0.00 | 0.00 | 68 | 1017.4 |
| 20260905115946 | 30 | 224 | 9.7 | 19.3 | 0.00 | 0.00 | 0.00 | 69 | 1017.4 |
| 20260905115446 | 30 | 221 | 11.3 | 20.9 | 0.00 | 0.00 | 0.00 | 69 | 1017.5 |
| 20260905114944 | 30 | 262 | 9.7 | 20.9 | 0.00 | 0.00 | 0.00 | 66 | 1017.4 |
| 20260905114441 | 30 | 207 | 9.7 | 20.9 | 0.00 | 0.00 | 0.00 | 65 | 1017.5 |
| 20260905114212 | 30 | 236 | 11.3 | 20.9 | 0.00 | 0.00 | 0.00 | 67 | 1017.5 |
| 20260905113442 | 30 | 237 | 9.7 | 17.7 | 0.00 | 0.00 | 0.00 | 69 | 1017.5 |
| 20260905113211 | 30 | 275 | 11.3 | 17.7 | 0.00 | 0.00 | 0.00 | 65 | 1017.4 |
| 20260905112441 | 31 | 272 | 11.3 | 20.9 | 0.00 | 0.00 | 0.00 | 64 | 1017.5 |
| 20260905111939 | 31 | 219 | 11.3 | 20.9 | 0.00 | 0.00 | 0.00 | 59 | 1017.4 |
| 20260905111440 | 31 | 225 | 9.7 | 19.3 | 0.00 | 0.00 | 0.00 | 59 | 1017.4 |
| 20260905110940 | 32 | 240 | 8.0 | 16.1 | 0.00 | 0.00 | 0.00 | 54 | 1017.3 |
| 20260905110438 | 32 | 212 | 6.4 | 16.1 | 0.00 | 0.00 | 0.00 | 51 | 1017.5 |
| 20260905105936 | 32 | 214 | 6.4 | 19.3 | 0.00 | 0.00 | 0.00 | 50 | 1017.4 |
| 20260905105437 | 32 | 252 | 4.8 | 19.3 | 0.00 | 0.00 | 0.00 | 49 | 1017.4 |
| 20260905104935 | 32 | 247 | 4.8 | 16.1 | 0.00 | 0.00 | 0.00 | 48 | 1017.6 |
| 20260905104435 | 31 | 218 | 4.8 | 16.1 | 0.00 | 0.00 | 0.00 | 50 | 1017.5 |
| 20260905103933 | 31 | 231 | 4.8 | 14.5 | 0.00 | 0.00 | 0.00 | 51 | 1017.5 |
| 20260905103433 | 31 | 223 | 6.4 | 14.5 | 0.00 | 0.00 | 0.00 | 56 | 1017.6 |
| 20260905102934 | 31 | 208 | 6.4 | 17.7 | 0.00 | 0.00 | 0.00 | 57 | 1017.5 |
| 20260905102431 | 31 | 250 | 6.4 | 17.7 | 0.00 | 0.00 | 0.00 | 55 | 1017.6 |
| 20260905101932 | 31 | 257 | 8.0 | 17.7 | 0.00 | 0.00 | 0.00 | 54 | 1017.7 |
| 20260905101432 | 31 | 256 | 8.0 | 17.7 | 0.00 | 0.00 | 0.00 | 56 | 1017.8 |
| 20260905101159 | 32 | 262 | 6.4 | 17.7 | 0.00 | 0.00 | 0.00 | 55 | 1017.8 |
| 20260905100430 | 32 | 212 | 4.8 | 14.5 | 0.00 | 0.00 | 0.00 | 51 | 1017.6 |
| 20260905095933 | 32 | 260 | 4.8 | 14.5 | 0.00 | 0.00 | 0.00 | 50 | 1017.7 |
| 20260905095927 | 32 | 271 | 3.2 | 11.3 | 0.00 | 0.00 | 0.00 | 51 | 1017.6 |
| 20260905095202 | 32 | 273 | 4.8 | 11.3 | 0.00 | 0.00 | 0.00 | 49 | 1017.6 |
| 20260905094425 | 31 | 225 | 4.8 | 11.3 | 0.00 | 0.00 | 0.00 | 47 | 1017.7 |
| 20260905093931 | 31 | 207 | 6.4 | 12.9 | 0.00 | 0.00 | 0.00 | 50 | 1017.8 |
| 20260905093917 | 31 | 169 | 6.4 | 12.9 | 0.00 | 0.00 | 0.00 | 51 | 1017.7 |
| 20260905092913 | 31 | 219 | 4.8 | 14.5 | 0.00 | 0.00 | 0.00 | 49 | 1017.9 |
| 20260905092413 | 31 | 228 | 6.4 | 14.5 | 0.00 | 0.00 | 0.00 | 50 | 1017.8 |
| 20260905091913 | 31 | 202 | 6.4 | 12.9 | 0.00 | 0.00 | 0.00 | 49 | 1017.7 |
| 20260905091413 | 31 | 267 | 4.8 | 11.3 | 0.00 | 0.00 | 0.00 | 48 | 1017.5 |
| 20260905090913 | 31 | 193 | 4.8 | 11.3 | 0.00 | 0.00 | 0.00 | 49 | 1017.5 |
| 20260905090412 | 31 | 200 | 4.8 | 12.9 | 0.00 | 0.00 | 0.00 | 49 | 1017.6 |
| 20260905085910 | 31 | 180 | 6.4 | 12.9 | 0.00 | 0.00 | 0.00 | 49 | 1017.6 |
| 20260905085410 | 31 | 231 | 6.4 | 12.9 | 0.00 | 0.00 | 0.00 | 50 | 1017.5 |
| 20260905084909 | 32 | 207 | 3.2 | 12.9 | 0.00 | 0.00 | 0.00 | 49 | 1017.5 |
| 20260905084421 | 32 | 212 | 3.2 | 9.7 | 0.00 | 0.00 | 0.00 | 46 | 1017.4 |
| 20260905083909 | 32 | 217 | 1.6 | 6.4 | 0.00 | 0.00 | 0.00 | 43 | 1017.4 |